owner,sensor,date,latitude,longitude,sea_surface_height_above_sea_level,qcFlag 
COMPS,ioos:station:USF.COMPS:ANM:1,2009-03-01T00:00:00Z,27.5400,-82.7400,-0.428,1111122 
COMPS,ioos:station:USF.COMPS:ANM:1,2009-03-01T00:06:00Z,27.5400,-82.7400,-0.44,1111122 
COMPS,ioos:station:USF.COMPS:ANM:1,2009-03-01T00:12:00Z,27.5400,-82.7400,-0.441,1111122 
COMPS,ioos:station:USF.COMPS:ANM:1,2009-03-01T00:18:00Z,27.5400,-82.7400,-0.445,1111122 
COMPS,ioos:station:USF.COMPS:ANM:1,2009-03-01T00:24:00Z,27.5400,-82.7400,-0.448,1111122 
COMPS,ioos:station:USF.COMPS:ANM:1,2009-03-01T00:30:00Z,27.5400,-82.7400,-0.455,1111122 
COMPS,ioos:station:USF.COMPS:ANM:1,2009-03-01T00:36:00Z,27.5400,-82.7400,-0.455,1111122 
COMPS,ioos:station:USF.COMPS:ANM:1,2009-03-01T00:42:00Z,27.5400,-82.7400,-0.466,1111122 
COMPS,ioos:station:USF.COMPS:ANM:1,2009-03-01T00:48:00Z,27.5400,-82.7400,-0.466,1111122 
COMPS,ioos:station:USF.COMPS:ANM:1,2009-03-01T00:54:00Z,27.5400,-82.7400,-0.461,1111122 
COMPS,ioos:station:USF.COMPS:ANM:1,2009-03-01T01:00:00Z,27.5400,-82.7400,-0.464,1111122 
COMPS,ioos:station:USF.COMPS:ANM:1,2009-03-01T01:06:00Z,27.5400,-82.7400,-0.463,1111122 
COMPS,ioos:station:USF.COMPS:ANM:1,2009-03-01T01:12:00Z,27.5400,-82.7400,-0.455,1111122 
COMPS,ioos:station:USF.COMPS:ANM:1,2009-03-01T01:18:00Z,27.5400,-82.7400,-0.463,1111122 
COMPS,ioos:station:USF.COMPS:ANM:1,2009-03-01T01:24:00Z,27.5400,-82.7400,-0.461,1111122 
COMPS,ioos:station:USF.COMPS:ANM:1,2009-03-01T01:30:00Z,27.5400,-82.7400,-0.458,1111122 
COMPS,ioos:station:USF.COMPS:ANM:1,2009-03-01T01:36:00Z,27.5400,-82.7400,-0.452,1111122 
COMPS,ioos:station:USF.COMPS:ANM:1,2009-03-01T01:42:00Z,27.5400,-82.7400,-0.453,1111122 
COMPS,ioos:station:USF.COMPS:ANM:1,2009-03-01T01:48:00Z,27.5400,-82.7400,-0.452,1111122 
COMPS,ioos:station:USF.COMPS:ANM:1,2009-03-01T01:54:00Z,27.5400,-82.7400,-0.45,1111122 
COMPS,ioos:station:USF.COMPS:ANM:1,2009-03-01T02:00:00Z,27.5400,-82.7400,-0.448,1111122 
COMPS,ioos:station:USF.COMPS:ANM:1,2009-03-01T02:06:00Z,27.5400,-82.7400,-0.44,1111122 
COMPS,ioos:station:USF.COMPS:ANM:1,2009-03-01T02:12:00Z,27.5400,-82.7400,-0.435,1111122 
COMPS,ioos:station:USF.COMPS:ANM:1,2009-03-01T02:18:00Z,27.5400,-82.7400,-0.424,1111122 
COMPS,ioos:station:USF.COMPS:ANM:1,2009-03-01T02:24:00Z,27.5400,-82.7400,-0.414,1111122 
COMPS,ioos:station:USF.COMPS:ANM:1,2009-03-01T02:30:00Z,27.5400,-82.7400,-0.415,1111122 
COMPS,ioos:station:USF.COMPS:ANM:1,2009-03-01T02:36:00Z,27.5400,-82.7400,-0.411,1111122 
COMPS,ioos:station:USF.COMPS:ANM:1,2009-03-01T02:42:00Z,27.5400,-82.7400,-0.397,1111122 
COMPS,ioos:station:USF.COMPS:ANM:1,2009-03-01T02:48:00Z,27.5400,-82.7400,-0.383,1111122 
COMPS,ioos:station:USF.COMPS:ANM:1,2009-03-01T02:54:00Z,27.5400,-82.7400,-0.376,1111122 
COMPS,ioos:station:USF.COMPS:ANM:1,2009-03-01T03:00:00Z,27.5400,-82.7400,-0.374,1111122 
COMPS,ioos:station:USF.COMPS:ANM:1,2009-03-01T03:06:00Z,27.5400,-82.7400,-0.354,1111122 
COMPS,ioos:station:USF.COMPS:ANM:1,2009-03-01T03:12:00Z,27.5400,-82.7400,-0.345,1111122 
COMPS,ioos:station:USF.COMPS:ANM:1,2009-03-01T03:18:00Z,27.5400,-82.7400,-0.332,1111122 
COMPS,ioos:station:USF.COMPS:ANM:1,2009-03-01T03:24:00Z,27.5400,-82.7400,-0.325,1111122 
COMPS,ioos:station:USF.COMPS:ANM:1,2009-03-01T03:30:00Z,27.5400,-82.7400,-0.306,1111122 
COMPS,ioos:station:USF.COMPS:ANM:1,2009-03-01T03:36:00Z,27.5400,-82.7400,-0.293,1111122 
COMPS,ioos:station:USF.COMPS:ANM:1,2009-03-01T03:42:00Z,27.5400,-82.7400,-0.275,1111122 
COMPS,ioos:station:USF.COMPS:ANM:1,2009-03-01T03:48:00Z,27.5400,-82.7400,-0.263,1111122 
COMPS,ioos:station:USF.COMPS:ANM:1,2009-03-01T03:54:00Z,27.5400,-82.7400,-0.257,1111122 
COMPS,ioos:station:USF.COMPS:ANM:1,2009-03-01T04:00:00Z,27.5400,-82.7400,-0.235,1111122 
COMPS,ioos:station:USF.COMPS:ANM:1,2009-03-01T04:06:00Z,27.5400,-82.7400,-0.231,1111122 
COMPS,ioos:station:USF.COMPS:ANM:1,2009-03-01T04:12:00Z,27.5400,-82.7400,-0.235,1111122 
COMPS,ioos:station:USF.COMPS:ANM:1,2009-03-01T04:18:00Z,27.5400,-82.7400,-0.216,1111122 
COMPS,ioos:station:USF.COMPS:ANM:1,2009-03-01T04:24:00Z,27.5400,-82.7400,-0.196,1111122 
COMPS,ioos:station:USF.COMPS:ANM:1,2009-03-01T04:30:00Z,27.5400,-82.7400,-0.203,1111122 
COMPS,ioos:station:USF.COMPS:ANM:1,2009-03-01T04:36:00Z,27.5400,-82.7400,-0.193,1111122 
COMPS,ioos:station:USF.COMPS:ANM:1,2009-03-01T04:42:00Z,27.5400,-82.7400,-0.185,1111122 
COMPS,ioos:station:USF.COMPS:ANM:1,2009-03-01T04:48:00Z,27.5400,-82.7400,-0.187,1111122 
COMPS,ioos:station:USF.COMPS:ANM:1,2009-03-01T04:54:00Z,27.5400,-82.7400,-0.17,1111122 
COMPS,ioos:station:USF.COMPS:ANM:1,2009-03-01T05:00:00Z,27.5400,-82.7400,-0.158,1111122 
COMPS,ioos:station:USF.COMPS:ANM:1,2009-03-01T05:06:00Z,27.5400,-82.7400,-0.148,1111122 
COMPS,ioos:station:USF.COMPS:ANM:1,2009-03-01T05:12:00Z,27.5400,-82.7400,-0.135,1111122 
COMPS,ioos:station:USF.COMPS:ANM:1,2009-03-01T05:18:00Z,27.5400,-82.7400,-0.128,1111122 
COMPS,ioos:station:USF.COMPS:ANM:1,2009-03-01T05:24:00Z,27.5400,-82.7400,-0.117,1111122 
COMPS,ioos:station:USF.COMPS:ANM:1,2009-03-01T05:30:00Z,27.5400,-82.7400,-0.108,1111122 
COMPS,ioos:station:USF.COMPS:ANM:1,2009-03-01T05:36:00Z,27.5400,-82.7400,-0.111,1111122 
COMPS,ioos:station:USF.COMPS:ANM:1,2009-03-01T05:42:00Z,27.5400,-82.7400,-0.108,1111122 
COMPS,ioos:station:USF.COMPS:ANM:1,2009-03-01T05:48:00Z,27.5400,-82.7400,-0.096,1111122 
COMPS,ioos:station:USF.COMPS:ANM:1,2009-03-01T05:54:00Z,27.5400,-82.7400,-0.066,1111122 
COMPS,ioos:station:USF.COMPS:ANM:1,2009-03-01T06:00:00Z,27.5400,-82.7400,-0.07,1111122 
COMPS,ioos:station:USF.COMPS:ANM:1,2009-03-01T06:06:00Z,27.5400,-82.7400,-0.064,1111122 
COMPS,ioos:station:USF.COMPS:ANM:1,2009-03-01T06:12:00Z,27.5400,-82.7400,-0.05,1111122 
COMPS,ioos:station:USF.COMPS:ANM:1,2009-03-01T06:18:00Z,27.5400,-82.7400,-0.041,1111122 
COMPS,ioos:station:USF.COMPS:ANM:1,2009-03-01T06:24:00Z,27.5400,-82.7400,-0.024,1111122 
COMPS,ioos:station:USF.COMPS:ANM:1,2009-03-01T06:30:00Z,27.5400,-82.7400,-0.026,1111122 
COMPS,ioos:station:USF.COMPS:ANM:1,2009-03-01T06:36:00Z,27.5400,-82.7400,-0.027,1111122 
COMPS,ioos:station:USF.COMPS:ANM:1,2009-03-01T06:42:00Z,27.5400,-82.7400,-0.012,1111122 
COMPS,ioos:station:USF.COMPS:ANM:1,2009-03-01T06:48:00Z,27.5400,-82.7400,-0.019,1111122 
COMPS,ioos:station:USF.COMPS:ANM:1,2009-03-01T06:54:00Z,27.5400,-82.7400,-0.028,1111122 
COMPS,ioos:station:USF.COMPS:ANM:1,2009-03-01T07:00:00Z,27.5400,-82.7400,-0.013,1111122 
COMPS,ioos:station:USF.COMPS:ANM:1,2009-03-01T07:06:00Z,27.5400,-82.7400,0.0,1114422 
COMPS,ioos:station:USF.COMPS:ANM:1,2009-03-01T07:12:00Z,27.5400,-82.7400,-0.001,1111122 
COMPS,ioos:station:USF.COMPS:ANM:1,2009-03-01T07:18:00Z,27.5400,-82.7400,-0.016,1111122 
COMPS,ioos:station:USF.COMPS:ANM:1,2009-03-01T07:24:00Z,27.5400,-82.7400,-0.02,1111122 
COMPS,ioos:station:USF.COMPS:ANM:1,2009-03-01T07:30:00Z,27.5400,-82.7400,0.016,1111122 
COMPS,ioos:station:USF.COMPS:ANM:1,2009-03-01T07:36:00Z,27.5400,-82.7400,0.022,1111122 
COMPS,ioos:station:USF.COMPS:ANM:1,2009-03-01T07:42:00Z,27.5400,-82.7400,0.026,1111122 
COMPS,ioos:station:USF.COMPS:ANM:1,2009-03-01T07:48:00Z,27.5400,-82.7400,0.018,1111122 
COMPS,ioos:station:USF.COMPS:ANM:1,2009-03-01T07:54:00Z,27.5400,-82.7400,0.032,1111122 
COMPS,ioos:station:USF.COMPS:ANM:1,2009-03-01T08:00:00Z,27.5400,-82.7400,0.028,1111122 
COMPS,ioos:station:USF.COMPS:ANM:1,2009-03-01T08:06:00Z,27.5400,-82.7400,0.031,1111122 
COMPS,ioos:station:USF.COMPS:ANM:1,2009-03-01T08:12:00Z,27.5400,-82.7400,0.017,1111122 
COMPS,ioos:station:USF.COMPS:ANM:1,2009-03-01T08:18:00Z,27.5400,-82.7400,0.01,1111122 
COMPS,ioos:station:USF.COMPS:ANM:1,2009-03-01T08:24:00Z,27.5400,-82.7400,0.002,1111122 
COMPS,ioos:station:USF.COMPS:ANM:1,2009-03-01T08:30:00Z,27.5400,-82.7400,0.005,1111122 
COMPS,ioos:station:USF.COMPS:ANM:1,2009-03-01T08:36:00Z,27.5400,-82.7400,-0.005,1111122 
COMPS,ioos:station:USF.COMPS:ANM:1,2009-03-01T08:42:00Z,27.5400,-82.7400,0.003,1111122 
COMPS,ioos:station:USF.COMPS:ANM:1,2009-03-01T08:48:00Z,27.5400,-82.7400,-0.026,1111122 
COMPS,ioos:station:USF.COMPS:ANM:1,2009-03-01T08:54:00Z,27.5400,-82.7400,-0.036,1111122 
COMPS,ioos:station:USF.COMPS:ANM:1,2009-03-01T09:00:00Z,27.5400,-82.7400,-0.009,1111122 
COMPS,ioos:station:USF.COMPS:ANM:1,2009-03-01T09:06:00Z,27.5400,-82.7400,-0.02,1111122 
COMPS,ioos:station:USF.COMPS:ANM:1,2009-03-01T09:12:00Z,27.5400,-82.7400,-0.025,1111122 
COMPS,ioos:station:USF.COMPS:ANM:1,2009-03-01T09:18:00Z,27.5400,-82.7400,-0.038,1111122 
COMPS,ioos:station:USF.COMPS:ANM:1,2009-03-01T09:24:00Z,27.5400,-82.7400,-0.027,1111122 
COMPS,ioos:station:USF.COMPS:ANM:1,2009-03-01T09:30:00Z,27.5400,-82.7400,-0.048,1111122 
COMPS,ioos:station:USF.COMPS:ANM:1,2009-03-01T09:36:00Z,27.5400,-82.7400,-0.062,1111122 
COMPS,ioos:station:USF.COMPS:ANM:1,2009-03-01T09:42:00Z,27.5400,-82.7400,-0.072,1111122 
COMPS,ioos:station:USF.COMPS:ANM:1,2009-03-01T09:48:00Z,27.5400,-82.7400,-0.085,1111122 
COMPS,ioos:station:USF.COMPS:ANM:1,2009-03-01T09:54:00Z,27.5400,-82.7400,-0.081,1111122 
COMPS,ioos:station:USF.COMPS:ANM:1,2009-03-01T10:00:00Z,27.5400,-82.7400,-0.094,1111122 
COMPS,ioos:station:USF.COMPS:ANM:1,2009-03-01T10:06:00Z,27.5400,-82.7400,-0.108,1111122 
COMPS,ioos:station:USF.COMPS:ANM:1,2009-03-01T10:12:00Z,27.5400,-82.7400,-0.143,1111122 
COMPS,ioos:station:USF.COMPS:ANM:1,2009-03-01T10:18:00Z,27.5400,-82.7400,-0.164,1111122 
COMPS,ioos:station:USF.COMPS:ANM:1,2009-03-01T10:24:00Z,27.5400,-82.7400,-0.165,1111122 
COMPS,ioos:station:USF.COMPS:ANM:1,2009-03-01T10:30:00Z,27.5400,-82.7400,-0.145,1111122 
COMPS,ioos:station:USF.COMPS:ANM:1,2009-03-01T10:36:00Z,27.5400,-82.7400,-0.155,1111122 
COMPS,ioos:station:USF.COMPS:ANM:1,2009-03-01T10:42:00Z,27.5400,-82.7400,-0.17,1111122 
COMPS,ioos:station:USF.COMPS:ANM:1,2009-03-01T10:48:00Z,27.5400,-82.7400,-0.187,1111122 
COMPS,ioos:station:USF.COMPS:ANM:1,2009-03-01T10:54:00Z,27.5400,-82.7400,-0.19,1111122 
COMPS,ioos:station:USF.COMPS:ANM:1,2009-03-01T11:00:00Z,27.5400,-82.7400,-0.186,1111122 
COMPS,ioos:station:USF.COMPS:ANM:1,2009-03-01T11:06:00Z,27.5400,-82.7400,-0.189,1111122 
COMPS,ioos:station:USF.COMPS:ANM:1,2009-03-01T11:12:00Z,27.5400,-82.7400,-0.207,1111122 
COMPS,ioos:station:USF.COMPS:ANM:1,2009-03-01T11:18:00Z,27.5400,-82.7400,-0.196,1111122 
COMPS,ioos:station:USF.COMPS:ANM:1,2009-03-01T11:24:00Z,27.5400,-82.7400,-0.187,1111122 
COMPS,ioos:station:USF.COMPS:ANM:1,2009-03-01T11:30:00Z,27.5400,-82.7400,-0.196,1111122 
COMPS,ioos:station:USF.COMPS:ANM:1,2009-03-01T11:36:00Z,27.5400,-82.7400,-0.198,1111122 
COMPS,ioos:station:USF.COMPS:ANM:1,2009-03-01T11:42:00Z,27.5400,-82.7400,-0.182,1111122 
COMPS,ioos:station:USF.COMPS:ANM:1,2009-03-01T11:48:00Z,27.5400,-82.7400,-0.181,1111122 
COMPS,ioos:station:USF.COMPS:ANM:1,2009-03-01T11:54:00Z,27.5400,-82.7400,-0.177,1111122 
COMPS,ioos:station:USF.COMPS:ANM:1,2009-03-01T12:00:00Z,27.5400,-82.7400,-0.179,1111122 
COMPS,ioos:station:USF.COMPS:ANM:1,2009-03-01T12:06:00Z,27.5400,-82.7400,-0.179,1111122 
COMPS,ioos:station:USF.COMPS:ANM:1,2009-03-01T12:12:00Z,27.5400,-82.7400,-0.182,1111122 
COMPS,ioos:station:USF.COMPS:ANM:1,2009-03-01T12:18:00Z,27.5400,-82.7400,-0.169,1111122 
COMPS,ioos:station:USF.COMPS:ANM:1,2009-03-01T12:24:00Z,27.5400,-82.7400,-0.153,1111122 
COMPS,ioos:station:USF.COMPS:ANM:1,2009-03-01T12:30:00Z,27.5400,-82.7400,-0.146,1111122 
COMPS,ioos:station:USF.COMPS:ANM:1,2009-03-01T12:36:00Z,27.5400,-82.7400,-0.142,1111122 
COMPS,ioos:station:USF.COMPS:ANM:1,2009-03-01T12:42:00Z,27.5400,-82.7400,-0.132,1111122 
COMPS,ioos:station:USF.COMPS:ANM:1,2009-03-01T12:48:00Z,27.5400,-82.7400,-0.117,1111122 
COMPS,ioos:station:USF.COMPS:ANM:1,2009-03-01T12:54:00Z,27.5400,-82.7400,-0.045,1111122 
COMPS,ioos:station:USF.COMPS:ANM:1,2009-03-01T13:00:00Z,27.5400,-82.7400,-0.032,1111122 
COMPS,ioos:station:USF.COMPS:ANM:1,2009-03-01T13:06:00Z,27.5400,-82.7400,-0.054,1111122 
COMPS,ioos:station:USF.COMPS:ANM:1,2009-03-01T13:12:00Z,27.5400,-82.7400,-0.043,1111122 
COMPS,ioos:station:USF.COMPS:ANM:1,2009-03-01T13:18:00Z,27.5400,-82.7400,-0.03,1111122 
COMPS,ioos:station:USF.COMPS:ANM:1,2009-03-01T13:24:00Z,27.5400,-82.7400,-0.007,1111122 
COMPS,ioos:station:USF.COMPS:ANM:1,2009-03-01T13:30:00Z,27.5400,-82.7400,0.05,1111122 
COMPS,ioos:station:USF.COMPS:ANM:1,2009-03-01T13:36:00Z,27.5400,-82.7400,0.025,1111122 
COMPS,ioos:station:USF.COMPS:ANM:1,2009-03-01T13:42:00Z,27.5400,-82.7400,0.011,1111122 
COMPS,ioos:station:USF.COMPS:ANM:1,2009-03-01T13:48:00Z,27.5400,-82.7400,0.021,1111122 
COMPS,ioos:station:USF.COMPS:ANM:1,2009-03-01T13:54:00Z,27.5400,-82.7400,0.057,1111122 
COMPS,ioos:station:USF.COMPS:ANM:1,2009-03-01T14:00:00Z,27.5400,-82.7400,0.087,1111122 
COMPS,ioos:station:USF.COMPS:ANM:1,2009-03-01T14:06:00Z,27.5400,-82.7400,0.088,1111122 
COMPS,ioos:station:USF.COMPS:ANM:1,2009-03-01T14:12:00Z,27.5400,-82.7400,0.08,1111122 
COMPS,ioos:station:USF.COMPS:ANM:1,2009-03-01T14:18:00Z,27.5400,-82.7400,0.063,1111122 
COMPS,ioos:station:USF.COMPS:ANM:1,2009-03-01T14:24:00Z,27.5400,-82.7400,0.075,1111122 
COMPS,ioos:station:USF.COMPS:ANM:1,2009-03-01T14:30:00Z,27.5400,-82.7400,0.064,1111122 
COMPS,ioos:station:USF.COMPS:ANM:1,2009-03-01T14:36:00Z,27.5400,-82.7400,0.067,1111122 
COMPS,ioos:station:USF.COMPS:ANM:1,2009-03-01T14:42:00Z,27.5400,-82.7400,0.077,1111122 
COMPS,ioos:station:USF.COMPS:ANM:1,2009-03-01T14:48:00Z,27.5400,-82.7400,0.065,1111122 
COMPS,ioos:station:USF.COMPS:ANM:1,2009-03-01T14:54:00Z,27.5400,-82.7400,0.038,1111122 
COMPS,ioos:station:USF.COMPS:ANM:1,2009-03-01T15:00:00Z,27.5400,-82.7400,0.032,1111122 
COMPS,ioos:station:USF.COMPS:ANM:1,2009-03-01T15:06:00Z,27.5400,-82.7400,0.002,1111122 
COMPS,ioos:station:USF.COMPS:ANM:1,2009-03-01T15:12:00Z,27.5400,-82.7400,-0.016,1111122 
COMPS,ioos:station:USF.COMPS:ANM:1,2009-03-01T15:18:00Z,27.5400,-82.7400,0.001,1111122 
COMPS,ioos:station:USF.COMPS:ANM:1,2009-03-01T15:24:00Z,27.5400,-82.7400,0.008,1111122 
COMPS,ioos:station:USF.COMPS:ANM:1,2009-03-01T15:30:00Z,27.5400,-82.7400,0.0,1114422 
COMPS,ioos:station:USF.COMPS:ANM:1,2009-03-01T15:36:00Z,27.5400,-82.7400,-0.016,1111122 
COMPS,ioos:station:USF.COMPS:ANM:1,2009-03-01T15:42:00Z,27.5400,-82.7400,-0.015,1111122 
COMPS,ioos:station:USF.COMPS:ANM:1,2009-03-01T15:48:00Z,27.5400,-82.7400,-0.021,1111122 
COMPS,ioos:station:USF.COMPS:ANM:1,2009-03-01T15:54:00Z,27.5400,-82.7400,-0.025,1111122 
COMPS,ioos:station:USF.COMPS:ANM:1,2009-03-01T16:00:00Z,27.5400,-82.7400,-0.015,1111122 
COMPS,ioos:station:USF.COMPS:ANM:1,2009-03-01T16:06:00Z,27.5400,-82.7400,-0.012,1111122 
COMPS,ioos:station:USF.COMPS:ANM:1,2009-03-01T16:12:00Z,27.5400,-82.7400,-0.036,1111122 
COMPS,ioos:station:USF.COMPS:ANM:1,2009-03-01T16:18:00Z,27.5400,-82.7400,-0.05,1111122 
COMPS,ioos:station:USF.COMPS:ANM:1,2009-03-01T16:24:00Z,27.5400,-82.7400,-0.045,1111122 
COMPS,ioos:station:USF.COMPS:ANM:1,2009-03-01T16:30:00Z,27.5400,-82.7400,-0.056,1111122 
COMPS,ioos:station:USF.COMPS:ANM:1,2009-03-01T16:36:00Z,27.5400,-82.7400,-0.048,1111122 
COMPS,ioos:station:USF.COMPS:ANM:1,2009-03-01T16:42:00Z,27.5400,-82.7400,-0.025,1111122 
COMPS,ioos:station:USF.COMPS:ANM:1,2009-03-01T16:48:00Z,27.5400,-82.7400,-0.013,1111122 
COMPS,ioos:station:USF.COMPS:ANM:1,2009-03-01T16:54:00Z,27.5400,-82.7400,-0.013,1111122 
COMPS,ioos:station:USF.COMPS:ANM:1,2009-03-01T17:00:00Z,27.5400,-82.7400,-0.004,1111122 
COMPS,ioos:station:USF.COMPS:ANM:1,2009-03-01T17:06:00Z,27.5400,-82.7400,-0.001,1111122 
COMPS,ioos:station:USF.COMPS:ANM:1,2009-03-01T17:12:00Z,27.5400,-82.7400,0.017,1111122 
COMPS,ioos:station:USF.COMPS:ANM:1,2009-03-01T17:18:00Z,27.5400,-82.7400,0.03,1111122 
COMPS,ioos:station:USF.COMPS:ANM:1,2009-03-01T17:24:00Z,27.5400,-82.7400,0.047,1111122 
COMPS,ioos:station:USF.COMPS:ANM:1,2009-03-01T17:30:00Z,27.5400,-82.7400,0.054,1111122 
COMPS,ioos:station:USF.COMPS:ANM:1,2009-03-01T17:36:00Z,27.5400,-82.7400,0.055,1111122 
COMPS,ioos:station:USF.COMPS:ANM:1,2009-03-01T17:42:00Z,27.5400,-82.7400,0.056,1111122 
COMPS,ioos:station:USF.COMPS:ANM:1,2009-03-01T17:48:00Z,27.5400,-82.7400,0.061,1111122 
COMPS,ioos:station:USF.COMPS:ANM:1,2009-03-01T17:54:00Z,27.5400,-82.7400,0.043,1111122 
COMPS,ioos:station:USF.COMPS:ANM:1,2009-03-01T18:00:00Z,27.5400,-82.7400,0.042,1111122 
COMPS,ioos:station:USF.COMPS:ANM:1,2009-03-01T18:06:00Z,27.5400,-82.7400,0.081,1111122 
COMPS,ioos:station:USF.COMPS:ANM:1,2009-03-01T18:12:00Z,27.5400,-82.7400,0.089,1111122 
COMPS,ioos:station:USF.COMPS:ANM:1,2009-03-01T18:18:00Z,27.5400,-82.7400,0.071,1111122 
COMPS,ioos:station:USF.COMPS:ANM:1,2009-03-01T18:24:00Z,27.5400,-82.7400,0.051,1111122 
COMPS,ioos:station:USF.COMPS:ANM:1,2009-03-01T18:30:00Z,27.5400,-82.7400,0.06,1111122 
COMPS,ioos:station:USF.COMPS:ANM:1,2009-03-01T18:36:00Z,27.5400,-82.7400,0.069,1111122 
COMPS,ioos:station:USF.COMPS:ANM:1,2009-03-01T18:42:00Z,27.5400,-82.7400,0.075,1111122 
COMPS,ioos:station:USF.COMPS:ANM:1,2009-03-01T18:48:00Z,27.5400,-82.7400,0.062,1111122 
COMPS,ioos:station:USF.COMPS:ANM:1,2009-03-01T18:54:00Z,27.5400,-82.7400,0.071,1111122 
COMPS,ioos:station:USF.COMPS:ANM:1,2009-03-01T19:00:00Z,27.5400,-82.7400,0.042,1111122 
COMPS,ioos:station:USF.COMPS:ANM:1,2009-03-01T19:06:00Z,27.5400,-82.7400,0.045,1111122 
COMPS,ioos:station:USF.COMPS:ANM:1,2009-03-01T19:12:00Z,27.5400,-82.7400,0.06,1111122 
COMPS,ioos:station:USF.COMPS:ANM:1,2009-03-01T19:18:00Z,27.5400,-82.7400,0.058,1111122 
COMPS,ioos:station:USF.COMPS:ANM:1,2009-03-01T19:24:00Z,27.5400,-82.7400,0.052,1111122 
COMPS,ioos:station:USF.COMPS:ANM:1,2009-03-01T19:30:00Z,27.5400,-82.7400,0.026,1111122 
COMPS,ioos:station:USF.COMPS:ANM:1,2009-03-01T19:36:00Z,27.5400,-82.7400,0.027,1111122 
COMPS,ioos:station:USF.COMPS:ANM:1,2009-03-01T19:42:00Z,27.5400,-82.7400,0.017,1111122 
COMPS,ioos:station:USF.COMPS:ANM:1,2009-03-01T19:48:00Z,27.5400,-82.7400,0.003,1111122 
COMPS,ioos:station:USF.COMPS:ANM:1,2009-03-01T19:54:00Z,27.5400,-82.7400,-0.005,1111122 
COMPS,ioos:station:USF.COMPS:ANM:1,2009-03-01T20:00:00Z,27.5400,-82.7400,-0.019,1111122 
COMPS,ioos:station:USF.COMPS:ANM:1,2009-03-01T20:06:00Z,27.5400,-82.7400,-0.023,1111122 
COMPS,ioos:station:USF.COMPS:ANM:1,2009-03-01T20:12:00Z,27.5400,-82.7400,-0.032,1111122 
COMPS,ioos:station:USF.COMPS:ANM:1,2009-03-01T20:18:00Z,27.5400,-82.7400,-0.04,1111122 
COMPS,ioos:station:USF.COMPS:ANM:1,2009-03-01T20:24:00Z,27.5400,-82.7400,-0.027,1111122 
COMPS,ioos:station:USF.COMPS:ANM:1,2009-03-01T20:30:00Z,27.5400,-82.7400,-0.021,1111122 
COMPS,ioos:station:USF.COMPS:ANM:1,2009-03-01T20:36:00Z,27.5400,-82.7400,-0.023,1111122 
COMPS,ioos:station:USF.COMPS:ANM:1,2009-03-01T20:42:00Z,27.5400,-82.7400,-0.016,1111122 
COMPS,ioos:station:USF.COMPS:ANM:1,2009-03-01T20:48:00Z,27.5400,-82.7400,-0.01,1111122 
COMPS,ioos:station:USF.COMPS:ANM:1,2009-03-01T20:54:00Z,27.5400,-82.7400,-0.01,1111122 
COMPS,ioos:station:USF.COMPS:ANM:1,2009-03-01T21:00:00Z,27.5400,-82.7400,-0.012,1111122 
COMPS,ioos:station:USF.COMPS:ANM:1,2009-03-01T21:06:00Z,27.5400,-82.7400,-0.035,1111122 
COMPS,ioos:station:USF.COMPS:ANM:1,2009-03-01T21:12:00Z,27.5400,-82.7400,-0.047,1111122 
COMPS,ioos:station:USF.COMPS:ANM:1,2009-03-01T21:18:00Z,27.5400,-82.7400,-0.048,1111122 
COMPS,ioos:station:USF.COMPS:ANM:1,2009-03-01T21:24:00Z,27.5400,-82.7400,-0.03,1111122 
COMPS,ioos:station:USF.COMPS:ANM:1,2009-03-01T21:30:00Z,27.5400,-82.7400,-0.033,1111122 
COMPS,ioos:station:USF.COMPS:ANM:1,2009-03-01T21:36:00Z,27.5400,-82.7400,-0.046,1111122 
COMPS,ioos:station:USF.COMPS:ANM:1,2009-03-01T21:42:00Z,27.5400,-82.7400,-0.042,1111122 
COMPS,ioos:station:USF.COMPS:ANM:1,2009-03-01T21:48:00Z,27.5400,-82.7400,-0.066,1111122 
COMPS,ioos:station:USF.COMPS:ANM:1,2009-03-01T21:54:00Z,27.5400,-82.7400,-0.089,1111122 
COMPS,ioos:station:USF.COMPS:ANM:1,2009-03-01T22:00:00Z,27.5400,-82.7400,-0.108,1111122 
COMPS,ioos:station:USF.COMPS:ANM:1,2009-03-01T22:06:00Z,27.5400,-82.7400,-0.135,1111122 
COMPS,ioos:station:USF.COMPS:ANM:1,2009-03-01T22:12:00Z,27.5400,-82.7400,-0.149,1111122 
COMPS,ioos:station:USF.COMPS:ANM:1,2009-03-01T22:18:00Z,27.5400,-82.7400,-0.157,1111122 
COMPS,ioos:station:USF.COMPS:ANM:1,2009-03-01T22:24:00Z,27.5400,-82.7400,-0.172,1111122 
COMPS,ioos:station:USF.COMPS:ANM:1,2009-03-01T22:30:00Z,27.5400,-82.7400,-0.197,1111122 
COMPS,ioos:station:USF.COMPS:ANM:1,2009-03-01T22:36:00Z,27.5400,-82.7400,-0.23,1111122 
COMPS,ioos:station:USF.COMPS:ANM:1,2009-03-01T22:42:00Z,27.5400,-82.7400,-0.255,1111122 
COMPS,ioos:station:USF.COMPS:ANM:1,2009-03-01T22:48:00Z,27.5400,-82.7400,-0.27,1111122 
COMPS,ioos:station:USF.COMPS:ANM:1,2009-03-01T22:54:00Z,27.5400,-82.7400,-0.297,1111122 
COMPS,ioos:station:USF.COMPS:ANM:1,2009-03-01T23:00:00Z,27.5400,-82.7400,-0.311,1111122 
COMPS,ioos:station:USF.COMPS:ANM:1,2009-03-01T23:06:00Z,27.5400,-82.7400,-0.325,1111122 
COMPS,ioos:station:USF.COMPS:ANM:1,2009-03-01T23:12:00Z,27.5400,-82.7400,-0.343,1111122 
COMPS,ioos:station:USF.COMPS:ANM:1,2009-03-01T23:18:00Z,27.5400,-82.7400,-0.363,1111122 
COMPS,ioos:station:USF.COMPS:ANM:1,2009-03-01T23:24:00Z,27.5400,-82.7400,-0.375,1111122 
COMPS,ioos:station:USF.COMPS:ANM:1,2009-03-01T23:30:00Z,27.5400,-82.7400,-0.386,1111122 
COMPS,ioos:station:USF.COMPS:ANM:1,2009-03-01T23:36:00Z,27.5400,-82.7400,-0.405,1111122 
COMPS,ioos:station:USF.COMPS:ANM:1,2009-03-01T23:42:00Z,27.5400,-82.7400,-0.418,1111122 
COMPS,ioos:station:USF.COMPS:ANM:1,2009-03-01T23:48:00Z,27.5400,-82.7400,-0.44,1111122 
COMPS,ioos:station:USF.COMPS:ANM:1,2009-03-01T23:54:00Z,27.5400,-82.7400,-0.435,1111122 
COMPS,ioos:station:USF.COMPS:ANM:1,2009-03-02T00:00:00Z,27.5400,-82.7400,-0.444,1111122 
COMPS,ioos:station:USF.COMPS:ANM:1,2009-03-02T00:06:00Z,27.5400,-82.7400,-0.454,1111122 
COMPS,ioos:station:USF.COMPS:ANM:1,2009-03-02T00:18:00Z,27.5400,-82.7400,-0.491,1111122 
COMPS,ioos:station:USF.COMPS:ANM:1,2009-03-02T00:24:00Z,27.5400,-82.7400,-0.495,1111122 
COMPS,ioos:station:USF.COMPS:ANM:1,2009-03-02T00:30:00Z,27.5400,-82.7400,-0.499,1111122 
COMPS,ioos:station:USF.COMPS:ANM:1,2009-03-02T00:36:00Z,27.5400,-82.7400,-0.506,1111122 
COMPS,ioos:station:USF.COMPS:ANM:1,2009-03-02T00:42:00Z,27.5400,-82.7400,-0.521,1111122 
COMPS,ioos:station:USF.COMPS:ANM:1,2009-03-02T00:48:00Z,27.5400,-82.7400,-0.537,1111122 
COMPS,ioos:station:USF.COMPS:ANM:1,2009-03-02T00:54:00Z,27.5400,-82.7400,-0.539,1111122 
COMPS,ioos:station:USF.COMPS:ANM:1,2009-03-02T01:00:00Z,27.5400,-82.7400,-0.546,1111122 
COMPS,ioos:station:USF.COMPS:ANM:1,2009-03-02T01:06:00Z,27.5400,-82.7400,-0.54,1111122 
COMPS,ioos:station:USF.COMPS:ANM:1,2009-03-02T01:12:00Z,27.5400,-82.7400,-0.547,1111122 
COMPS,ioos:station:USF.COMPS:ANM:1,2009-03-02T01:18:00Z,27.5400,-82.7400,-0.548,1111122 
COMPS,ioos:station:USF.COMPS:ANM:1,2009-03-02T01:24:00Z,27.5400,-82.7400,-0.555,1111122 
COMPS,ioos:station:USF.COMPS:ANM:1,2009-03-02T01:30:00Z,27.5400,-82.7400,-0.559,1111122 
COMPS,ioos:station:USF.COMPS:ANM:1,2009-03-02T01:36:00Z,27.5400,-82.7400,-0.554,1111122 
COMPS,ioos:station:USF.COMPS:ANM:1,2009-03-02T01:42:00Z,27.5400,-82.7400,-0.55,1111122 
COMPS,ioos:station:USF.COMPS:ANM:1,2009-03-02T01:48:00Z,27.5400,-82.7400,-0.546,1111122 
COMPS,ioos:station:USF.COMPS:ANM:1,2009-03-02T01:54:00Z,27.5400,-82.7400,-0.556,1111122 
COMPS,ioos:station:USF.COMPS:ANM:1,2009-03-02T02:00:00Z,27.5400,-82.7400,-0.568,1111122 
COMPS,ioos:station:USF.COMPS:ANM:1,2009-03-02T02:06:00Z,27.5400,-82.7400,-0.55,1111122 
COMPS,ioos:station:USF.COMPS:ANM:1,2009-03-02T02:12:00Z,27.5400,-82.7400,-0.548,1111122 
COMPS,ioos:station:USF.COMPS:ANM:1,2009-03-02T02:18:00Z,27.5400,-82.7400,-0.542,1111122 
COMPS,ioos:station:USF.COMPS:ANM:1,2009-03-02T02:24:00Z,27.5400,-82.7400,-0.548,1111122 
COMPS,ioos:station:USF.COMPS:ANM:1,2009-03-02T02:30:00Z,27.5400,-82.7400,-0.576,1111122 
COMPS,ioos:station:USF.COMPS:ANM:1,2009-03-02T02:36:00Z,27.5400,-82.7400,-0.577,1111122 
COMPS,ioos:station:USF.COMPS:ANM:1,2009-03-02T02:42:00Z,27.5400,-82.7400,-0.583,1111122 
COMPS,ioos:station:USF.COMPS:ANM:1,2009-03-02T02:48:00Z,27.5400,-82.7400,-0.584,1111122 
COMPS,ioos:station:USF.COMPS:ANM:1,2009-03-02T02:54:00Z,27.5400,-82.7400,-0.577,1111122 